Flag for U.S.A. Weather past 2 weeks in Albany, New York, U.S.A.

35 °F

Passing clouds.

Feels Like: 30 °F
Forecast: 35 / 53 °F
Wind: 6 mph from Southwest

Location: Albany County Airport

Current Time: Nov 26, 2015 at 6:36:17 AM

Latest Report: Nov 26, 2015 at 5:51 AM

Visibility: 10 mi

Pressure: 30.79 "Hg

Humidity: 75%

Dew point: 28 °F

Location of AlbanyLocation

Historic Weather in Albany — Graph


Albany temperature yesterday

Maximum temperature yesterday: 47 °F (at 1:51 PM)
Minimum temperature yesterday: 24 °F (at 5:51 AM)
Average temperature yesterday: 36 °F

Past Weeks' High & Low Weather Summary

High62 °F (Nov 19, 4:51 PM)90% (Nov 11, 7:51 AM)30.78 "Hg (Nov 11, 7:51 AM)
Low22 °F (Nov 23, 11:51 PM)22% (Nov 23, 2:51 PM)29.44 "Hg (Nov 13, 3:51 AM)
Average43 °F64%30.15 "Hg
* Reported Nov 11 4:51 AM — Nov 26 4:51 AM, Albany, Weather by CustomWeather, © 2015

Note: Actual official high and low records may vary slightly from our data, if they occured in-between our weather recording intervals... More about our weather records


Albany weather history for previous 24 hours

Time TempWeatherWind HumidityBarometerVisibility
4:51 AM
Thu, Nov 26
38 °FPassing clouds.7 mph68%30.78 "Hg10 mi
3:51 AM40 °FPassing clouds.6 mph65%30.78 "Hg10 mi
2:51 AM40 °FPassing clouds.9 mph68%30.78 "Hg10 mi
1:51 AM34 °FPassing clouds.3 mph76%30.77 "Hg10 mi
12:51 AM33 °FPassing clouds.No wind75%30.78 "Hg10 mi
11:51 PM
Wed, Nov 25
33 °FPassing clouds.No wind72%30.78 "Hg10 mi
10:51 PM36 °FPassing clouds.No wind64%30.78 "Hg10 mi
9:51 PM38 °FPassing clouds.5 mph63%30.77 "Hg10 mi
8:51 PM40 °FPassing clouds.7 mph55%30.77 "Hg10 mi
7:51 PM41 °FPassing clouds.8 mph51%30.77 "Hg10 mi
6:51 PM40 °FPassing clouds.3 mph49%30.77 "Hg10 mi
5:51 PM40 °FPassing clouds.3 mph49%30.76 "Hg10 mi
4:51 PM43 °FPassing clouds.5 mph45%30.75 "Hg10 mi
3:51 PM45 °FPassing clouds.7 mph42%30.73 "Hg10 mi
2:51 PM47 °FPassing clouds.12 mph39%30.73 "Hg10 mi
1:51 PM47 °FPassing clouds.9 mph42%30.73 "Hg10 mi
12:51 PM46 °FPassing clouds.10 mph46%30.74 "Hg10 mi
11:51 AM43 °FPassing clouds.9 mph51%30.76 "Hg10 mi
10:51 AM40 °FPassing clouds.7 mph55%30.77 "Hg10 mi
9:51 AM36 °FPassing clouds.6 mph67%30.77 "Hg10 mi
8:51 AM32 °FPassing clouds.5 mph75%30.76 "Hg10 mi
7:51 AM25 °FPassing clouds.No wind81%30.73 "Hg10 mi
6:51 AM25 °FPassing clouds.3 mph81%30.70 "Hg10 mi
Weather by CustomWeather, © 2015

See weather overviewHow to use our weather pages